Time,TemperatureF,DewpointF,PressureIn,WindDirection,WindDirectionDegrees,WindSpeedMPH,WindSpeedGustMPH,Humidity,HourlyPrecipIn,Conditions,Clouds,dailyrainin,SolarRadiationWatts/m^2,SoftwareType,DateUTC
2013-07-21 00:00:00,60.8,50.6,29.83,North,-999,5.0,6.0,69,0.00,,,0.00,0.00,VWS V14.01,2013-07-21 06:00:00,
2013-07-21 00:05:00,61.5,50.5,29.83,North,-999,5.0,7.0,67,0.00,,,0.00,0.00,VWS V14.01,2013-07-21 06:05:00,
2013-07-21 00:10:00,61.5,50.5,29.83,North,-999,6.0,6.0,67,0.00,,,0.00,0.00,VWS V14.01,2013-07-21 06:10:00,
2013-07-21 00:15:00,61.3,50.3,29.83,North,-999,6.0,6.0,67,0.00,,,0.00,0.00,VWS V14.01,2013-07-21 06:15:00,
2013-07-21 00:20:00,61.3,50.3,29.83,North,-999,6.0,7.0,67,0.00,,,0.00,0.00,VWS V14.01,2013-07-21 06:20:00,
2013-07-21 00:25:00,61.4,49.5,29.82,North,-999,6.0,7.0,65,0.00,,,0.00,0.00,VWS V14.01,2013-07-21 06:25:00,
2013-07-21 00:30:00,62.7,49.5,29.82,North,-999,7.0,8.0,62,0.00,,,0.00,0.00,VWS V14.01,2013-07-21 06:30:00,
2013-07-21 00:35:00,63.4,48.8,29.83,North,-999,9.0,10.0,59,0.00,,,0.00,0.00,VWS V14.01,2013-07-21 06:35:00,
2013-07-21 00:40:00,63.7,49.1,29.82,North,-999,10.0,11.0,59,0.00,,,0.00,0.00,VWS V14.01,2013-07-21 06:40:00,
2013-07-21 00:45:00,63.2,49.1,29.82,North,-999,9.0,11.0,60,0.00,,,0.00,0.00,VWS V14.01,2013-07-21 06:45:00,
2013-07-21 00:50:00,62.9,48.8,29.82,North,-999,12.0,12.0,60,0.00,,,0.00,0.00,VWS V14.01,2013-07-21 06:50:00,
2013-07-21 00:55:00,62.8,49.2,29.82,North,-999,8.0,12.0,61,0.00,,,0.00,0.00,VWS V14.01,2013-07-21 06:55:00,
2013-07-21 01:00:00,62.5,48.9,29.82,North,-999,6.0,9.0,61,0.00,,,0.00,0.00,VWS V14.01,2013-07-21 07:00:00,
2013-07-21 01:05:00,61.9,49.2,29.82,North,-999,6.0,9.0,63,0.00,,,0.00,0.00,VWS V14.01,2013-07-21 07:05:00,
2013-07-21 01:10:00,61.0,49.2,29.82,North,-999,7.0,8.0,65,0.00,,,0.00,0.00,VWS V14.01,2013-07-21 07:10:00,
2013-07-21 01:15:00,60.6,48.8,29.82,North,-999,6.0,9.0,65,0.00,,,0.00,0.00,VWS V14.01,2013-07-21 07:15:00,
2013-07-21 01:20:00,60.7,48.9,29.82,North,-999,6.0,7.0,65,0.00,,,0.00,0.00,VWS V14.01,2013-07-21 07:20:00,
2013-07-21 01:25:00,60.5,49.1,29.82,North,-999,6.0,9.0,66,0.00,,,0.00,0.00,VWS V14.01,2013-07-21 07:25:00,
2013-07-21 01:30:00,60.1,48.7,29.82,North,-999,5.0,8.0,66,0.00,,,0.00,0.00,VWS V14.01,2013-07-21 07:30:00,
2013-07-21 01:35:00,60.7,48.0,29.82,North,-999,5.0,8.0,63,0.00,,,0.00,0.00,VWS V14.01,2013-07-21 07:35:00,
2013-07-21 01:40:00,61.5,48.4,29.82,North,-999,7.0,7.0,62,0.00,,,0.00,0.00,VWS V14.01,2013-07-21 07:40:00,
2013-07-21 01:45:00,60.6,48.4,29.82,North,-999,7.0,9.0,64,0.00,,,0.00,0.00,VWS V14.01,2013-07-21 07:45:00,
2013-07-21 01:50:00,60.1,48.7,29.82,North,-999,6.0,9.0,66,0.00,,,0.00,0.00,VWS V14.01,2013-07-21 07:50:00,
2013-07-21 01:55:00,59.5,48.5,29.81,North,-999,7.0,9.0,67,0.00,,,0.00,0.00,VWS V14.01,2013-07-21 07:55:00,
2013-07-21 02:00:00,59.4,48.5,29.82,North,-999,6.0,9.0,67,0.00,,,0.00,0.00,VWS V14.01,2013-07-21 08:00:00,
2013-07-21 02:05:00,59.4,48.5,29.82,North,-999,6.0,9.0,67,0.00,,,0.00,0.00,VWS V14.01,2013-07-21 08:05:00,
2013-07-21 02:10:00,59.5,48.2,29.81,North,-999,6.0,7.0,66,0.00,,,0.00,0.00,VWS V14.01,2013-07-21 08:10:00,
2013-07-21 02:15:00,59.5,48.5,29.82,North,-999,7.0,9.0,67,0.00,,,0.00,0.00,VWS V14.01,2013-07-21 08:15:00,
2013-07-21 02:20:00,59.2,48.3,29.82,North,-999,6.0,7.0,67,0.00,,,0.00,0.00,VWS V14.01,2013-07-21 08:20:00,
2013-07-21 02:25:00,59.4,48.0,29.81,North,-999,9.0,10.0,66,0.00,,,0.00,0.00,VWS V14.01,2013-07-21 08:25:00,
2013-07-21 02:30:00,60.4,48.2,29.81,North,-999,6.0,7.0,64,0.00,,,0.00,0.00,VWS V14.01,2013-07-21 08:30:00,
2013-07-21 02:35:00,60.8,48.1,29.81,North,-999,5.0,9.0,63,0.00,,,0.00,0.00,VWS V14.01,2013-07-21 08:35:00,
2013-07-21 02:40:00,60.5,48.3,29.81,North,-999,7.0,8.0,64,0.00,,,0.00,0.00,VWS V14.01,2013-07-21 08:40:00,
2013-07-21 02:45:00,60.3,48.1,29.81,North,-999,6.0,8.0,64,0.00,,,0.00,0.00,VWS V14.01,2013-07-21 08:45:00,
2013-07-21 02:50:00,60.1,47.9,29.81,North,-999,6.0,9.0,64,0.00,,,0.00,0.00,VWS V14.01,2013-07-21 08:50:00,
2013-07-21 02:55:00,59.7,48.3,29.81,North,-999,7.0,9.0,66,0.00,,,0.00,0.00,VWS V14.01,2013-07-21 08:55:00,
2013-07-21 03:00:00,59.7,47.9,29.81,North,-999,9.0,10.0,65,0.00,,,0.00,0.00,VWS V14.01,2013-07-21 09:00:00,
2013-07-21 03:05:00,60.2,48.0,29.80,North,-999,7.0,10.0,64,0.00,,,0.00,0.00,VWS V14.01,2013-07-21 09:05:00,
2013-07-21 03:10:00,60.5,47.9,29.80,North,-999,5.0,7.0,63,0.00,,,0.00,0.00,VWS V14.01,2013-07-21 09:10:00,
2013-07-21 03:15:00,60.2,48.0,29.80,North,-999,6.0,9.0,64,0.00,,,0.00,0.00,VWS V14.01,2013-07-21 09:15:00,
2013-07-21 03:20:00,59.9,48.1,29.81,North,-999,6.0,8.0,65,0.00,,,0.00,0.00,VWS V14.01,2013-07-21 09:20:00,
2013-07-21 03:25:00,60.4,47.8,29.80,North,-999,8.0,10.0,63,0.00,,,0.00,0.00,VWS V14.01,2013-07-21 09:25:00,
2013-07-21 03:30:00,60.5,47.9,29.80,North,-999,5.0,6.0,63,0.00,,,0.00,0.00,VWS V14.01,2013-07-21 09:30:00,
2013-07-21 03:35:00,60.4,47.8,29.81,North,-999,7.0,10.0,63,0.00,,,0.00,0.00,VWS V14.01,2013-07-21 09:35:00,
2013-07-21 03:40:00,61.8,47.3,29.80,North,-999,6.0,10.0,59,0.00,,,0.00,0.00,VWS V14.01,2013-07-21 09:40:00,
2013-07-21 03:45:00,61.9,47.4,29.81,North,-999,7.0,11.0,59,0.00,,,0.00,0.00,VWS V14.01,2013-07-21 09:45:00,
2013-07-21 03:50:00,61.4,47.8,29.81,North,-999,1.0,7.0,61,0.00,,,0.00,0.00,VWS V14.01,2013-07-21 09:50:00,
2013-07-21 03:55:00,61.0,47.9,29.81,North,-999,0.0,7.0,62,0.00,,,0.00,0.00,VWS V14.01,2013-07-21 09:55:00,
2013-07-21 04:00:00,59.9,48.1,29.81,North,-999,0.0,0.0,65,0.00,,,0.00,0.00,VWS V14.01,2013-07-21 10:00:00,
2013-07-21 04:05:00,59.7,47.9,29.81,North,-999,0.0,0.0,65,0.00,,,0.00,0.00,VWS V14.01,2013-07-21 10:05:00,
2013-07-21 04:10:00,59.9,47.7,29.80,North,-999,3.0,4.0,64,0.00,,,0.00,0.00,VWS V14.01,2013-07-21 10:10:00,
2013-07-21 04:15:00,60.4,47.3,29.81,North,-999,4.0,5.0,62,0.00,,,0.00,0.00,VWS V14.01,2013-07-21 10:15:00,
2013-07-21 04:20:00,61.0,47.0,29.80,North,-999,0.0,4.0,60,0.00,,,0.00,0.00,VWS V14.01,2013-07-21 10:20:00,
2013-07-21 04:25:00,61.3,47.3,29.80,North,-999,0.0,4.0,60,0.00,,,0.00,0.00,VWS V14.01,2013-07-21 10:25:00,
2013-07-21 04:30:00,61.2,47.2,29.80,North,-999,0.0,5.0,60,0.00,,,0.00,0.00,VWS V14.01,2013-07-21 10:30:00,
2013-07-21 04:35:00,61.1,47.6,29.80,North,-999,0.0,5.0,61,0.00,,,0.00,0.00,VWS V14.01,2013-07-21 10:35:00,
2013-07-21 04:40:00,60.3,47.2,29.80,North,-999,5.0,6.0,62,0.00,,,0.00,0.00,VWS V14.01,2013-07-21 10:40:00,
2013-07-21 04:45:00,60.5,47.4,29.80,North,-999,5.0,6.0,62,0.00,,,0.00,0.00,VWS V14.01,2013-07-21 10:45:00,
2013-07-21 04:50:00,60.3,46.8,29.80,North,-999,0.0,0.0,61,0.00,,,0.00,0.00,VWS V14.01,2013-07-21 10:50:00,
2013-07-21 04:55:00,60.5,47.0,29.80,North,-999,0.0,0.0,61,0.00,,,0.00,0.00,VWS V14.01,2013-07-21 10:55:00,
2013-07-21 05:00:00,60.4,47.3,29.80,North,-999,0.0,0.0,62,0.00,,,0.00,0.00,VWS V14.01,2013-07-21 11:00:00,
2013-07-21 05:05:00,60.2,47.2,29.80,North,-999,0.0,0.0,62,0.00,,,0.00,0.00,VWS V14.01,2013-07-21 11:05:00,
2013-07-21 05:10:00,59.9,46.9,29.80,North,-999,0.0,0.0,62,0.00,,,0.00,0.00,VWS V14.01,2013-07-21 11:10:00,
2013-07-21 05:15:00,59.8,46.8,29.80,North,-999,0.0,0.0,62,0.00,,,0.00,0.00,VWS V14.01,2013-07-21 11:15:00,
2013-07-21 05:20:00,59.7,47.1,29.80,North,-999,0.0,0.0,63,0.00,,,0.00,0.00,VWS V14.01,2013-07-21 11:20:00,
2013-07-21 05:25:00,59.2,47.9,29.80,North,-999,5.0,5.0,66,0.00,,,0.00,0.00,VWS V14.01,2013-07-21 11:25:00,
2013-07-21 05:30:00,57.6,47.9,29.80,North,-999,3.0,4.0,70,0.00,,,0.00,0.00,VWS V14.01,2013-07-21 11:30:00,
2013-07-21 05:35:00,56.3,47.4,29.80,North,-999,4.0,6.0,72,0.00,,,0.00,0.00,VWS V14.01,2013-07-21 11:35:00,
2013-07-21 05:40:00,56.2,47.7,29.80,North,-999,5.0,5.0,73,0.00,,,0.00,0.00,VWS V14.01,2013-07-21 11:40:00,
2013-07-21 05:45:00,56.1,47.6,29.80,North,-999,4.0,6.0,73,0.00,,,0.00,0.00,VWS V14.01,2013-07-21 11:45:00,
2013-07-21 05:50:00,56.4,47.1,29.80,North,-999,0.0,5.0,71,0.00,,,0.00,0.00,VWS V14.01,2013-07-21 11:50:00,
2013-07-21 05:54:00,56.9,47.2,29.80,North,-999,0.0,5.0,70,0.00,,,0.00,5.00,VWS V14.01,2013-07-21 11:54:00,
2013-07-21 05:59:00,57.5,47.0,29.81,North,-999,0.0,0.0,68,0.00,,,0.00,7.00,VWS V14.01,2013-07-21 11:59:00,
2013-07-21 06:04:00,58.1,47.2,29.81,North,-999,0.0,0.0,67,0.00,,,0.00,11.00,VWS V14.01,2013-07-21 12:04:00,
2013-07-21 06:09:00,58.2,46.9,29.82,North,-999,0.0,0.0,66,0.00,,,0.00,14.00,VWS V14.01,2013-07-21 12:09:00,
2013-07-21 06:14:00,58.5,46.8,29.82,North,-999,0.0,0.0,65,0.00,,,0.00,14.00,VWS V14.01,2013-07-21 12:14:00,
2013-07-21 06:19:00,58.6,46.9,29.82,North,-999,3.0,3.0,65,0.00,,,0.00,18.00,VWS V14.01,2013-07-21 12:19:00,
2013-07-21 06:24:00,58.7,47.0,29.82,North,-999,0.0,4.0,65,0.00,,,0.00,19.00,VWS V14.01,2013-07-21 12:24:00,
2013-07-21 06:29:00,59.0,47.3,29.81,North,-999,0.0,6.0,65,0.00,,,0.00,23.00,VWS V14.01,2013-07-21 12:29:00,
2013-07-21 06:34:00,59.0,46.8,29.81,North,-999,0.0,6.0,64,0.00,,,0.00,25.00,VWS V14.01,2013-07-21 12:34:00,
2013-07-21 06:39:00,59.1,47.4,29.82,North,-999,0.0,0.0,65,0.00,,,0.00,26.00,VWS V14.01,2013-07-21 12:39:00,
2013-07-21 06:44:00,59.3,47.5,29.82,North,-999,0.0,0.0,65,0.00,,,0.00,28.00,VWS V14.01,2013-07-21 12:44:00,
2013-07-21 06:49:00,59.1,48.2,29.82,North,-999,4.0,4.0,67,0.00,,,0.00,30.00,VWS V14.01,2013-07-21 12:49:00,
2013-07-21 06:54:00,59.5,46.9,29.82,North,-999,5.0,6.0,63,0.00,,,0.00,32.00,VWS V14.01,2013-07-21 12:54:00,
2013-07-21 06:59:00,60.5,48.7,29.82,North,-999,5.0,7.0,65,0.00,,,0.00,33.00,VWS V14.01,2013-07-21 12:59:00,
2013-07-21 07:04:00,60.4,48.6,29.82,North,-999,0.0,7.0,65,0.00,,,0.00,37.00,VWS V14.01,2013-07-21 13:04:00,
2013-07-21 07:09:00,60.6,48.4,29.82,North,-999,0.0,0.0,64,0.00,,,0.00,39.00,VWS V14.01,2013-07-21 13:09:00,
2013-07-21 07:14:00,60.9,49.9,29.82,North,-999,0.0,0.0,67,0.00,,,0.00,42.00,VWS V14.01,2013-07-21 13:14:00,
2013-07-21 07:19:00,61.1,50.5,29.83,North,-999,0.0,0.0,68,0.00,,,0.00,47.00,VWS V14.01,2013-07-21 13:19:00,
2013-07-21 07:24:00,61.5,50.8,29.83,North,-999,0.0,0.0,68,0.00,,,0.00,54.00,VWS V14.01,2013-07-21 13:24:00,
2013-07-21 07:29:00,62.0,51.7,29.83,North,-999,0.0,0.0,69,0.00,,,0.00,70.00,VWS V14.01,2013-07-21 13:29:00,
2013-07-21 07:34:00,62.6,51.9,29.83,North,-999,0.0,0.0,68,0.00,,,0.00,90.00,VWS V14.01,2013-07-21 13:34:00,
2013-07-21 07:39:00,63.2,53.7,29.83,North,-999,0.0,0.0,71,0.00,,,0.00,132.00,VWS V14.01,2013-07-21 13:39:00,
2013-07-21 07:44:00,63.7,53.0,29.83,North,-999,0.0,0.0,68,0.00,,,0.00,178.00,VWS V14.01,2013-07-21 13:44:00,
2013-07-21 07:49:00,64.7,51.0,29.83,North,-999,4.0,5.0,61,0.00,,,0.00,216.00,VWS V14.01,2013-07-21 13:49:00,
2013-07-21 07:54:00,66.4,50.2,29.83,North,-999,3.0,5.0,56,0.00,,,0.00,258.00,VWS V14.01,2013-07-21 13:54:00,
2013-07-21 07:59:00,67.6,51.4,29.83,North,-999,0.0,0.0,56,0.00,,,0.00,290.00,VWS V14.01,2013-07-21 13:59:00,
2013-07-21 08:04:00,68.0,54.5,29.83,North,-999,0.0,0.0,62,0.00,,,0.00,308.00,VWS V14.01,2013-07-21 14:04:00,
2013-07-21 08:09:00,68.3,53.9,29.83,North,-999,0.0,0.0,60,0.00,,,0.00,322.00,VWS V14.01,2013-07-21 14:09:00,
2013-07-21 08:14:00,68.8,54.4,29.83,North,-999,0.0,4.0,60,0.00,,,0.00,338.00,VWS V14.01,2013-07-21 14:14:00,
2013-07-21 08:19:00,69.4,54.9,29.83,North,-999,0.0,0.0,60,0.00,,,0.00,353.00,VWS V14.01,2013-07-21 14:19:00,
2013-07-21 08:24:00,70.0,53.6,29.83,North,-999,0.0,0.0,56,0.00,,,0.00,366.00,VWS V14.01,2013-07-21 14:24:00,
2013-07-21 08:29:00,70.8,53.3,29.83,North,-999,0.0,0.0,54,0.00,,,0.00,380.00,VWS V14.01,2013-07-21 14:29:00,
2013-07-21 08:34:00,71.4,52.3,29.84,North,-999,0.0,0.0,51,0.00,,,0.00,396.00,VWS V14.01,2013-07-21 14:34:00,
2013-07-21 08:39:00,71.8,52.7,29.83,North,-999,0.0,1.0,51,0.00,,,0.00,411.00,VWS V14.01,2013-07-21 14:39:00,
2013-07-21 08:44:00,72.1,53.0,29.83,North,-999,0.0,4.0,51,0.00,,,0.00,427.00,VWS V14.01,2013-07-21 14:44:00,
2013-07-21 08:49:00,73.1,52.3,29.83,North,-999,0.0,0.0,48,0.00,,,0.00,441.00,VWS V14.01,2013-07-21 14:49:00,
2013-07-21 08:54:00,74.2,53.3,29.83,North,-999,0.0,1.0,48,0.00,,,0.00,455.00,VWS V14.01,2013-07-21 14:54:00,
2013-07-21 08:59:00,74.9,52.2,29.83,North,-999,0.0,0.0,45,0.00,,,0.00,473.00,VWS V14.01,2013-07-21 14:59:00,
2013-07-21 09:04:00,75.3,51.3,29.84,North,-999,0.0,0.0,43,0.00,,,0.00,483.00,VWS V14.01,2013-07-21 15:04:00,
2013-07-21 09:09:00,76.5,49.7,29.83,North,-999,0.0,0.0,39,0.00,,,0.00,501.00,VWS V14.01,2013-07-21 15:09:00,
2013-07-21 09:14:00,76.8,50.0,29.83,North,-999,2.0,3.0,39,0.00,,,0.00,517.00,VWS V14.01,2013-07-21 15:14:00,
2013-07-21 09:19:00,76.8,50.0,29.84,North,-999,0.0,0.0,39,0.00,,,0.00,531.00,VWS V14.01,2013-07-21 15:19:00,
2013-07-21 09:24:00,77.1,48.8,29.84,North,-999,0.0,0.0,37,0.00,,,0.00,543.00,VWS V14.01,2013-07-21 15:24:00,
2013-07-21 09:29:00,77.7,48.7,29.84,North,-999,0.0,0.0,36,0.00,,,0.00,557.00,VWS V14.01,2013-07-21 15:29:00,
2013-07-21 09:34:00,77.9,48.1,29.84,North,-999,0.0,0.0,35,0.00,,,0.00,571.00,VWS V14.01,2013-07-21 15:34:00,
2013-07-21 09:39:00,77.8,50.9,29.84,North,-999,0.0,0.0,39,0.00,,,0.00,589.00,VWS V14.01,2013-07-21 15:39:00,
2013-07-21 09:44:00,77.5,48.5,29.83,North,-999,0.0,0.0,36,0.00,,,0.00,603.00,VWS V14.01,2013-07-21 15:44:00,
2013-07-21 09:49:00,77.5,49.9,29.83,North,-999,0.0,2.0,38,0.00,,,0.00,615.00,VWS V14.01,2013-07-21 15:49:00,
2013-07-21 09:54:00,77.4,48.4,29.83,North,-999,0.0,2.0,36,0.00,,,0.00,626.00,VWS V14.01,2013-07-21 15:54:00,
2013-07-21 09:59:00,77.5,49.2,29.83,North,-999,0.0,0.0,37,0.00,,,0.00,640.00,VWS V14.01,2013-07-21 15:59:00,
2013-07-21 10:04:00,78.2,50.5,29.83,North,-999,0.0,0.0,38,0.00,,,0.00,650.00,VWS V14.01,2013-07-21 16:04:00,
2013-07-21 10:09:00,78.6,52.3,29.83,North,-999,0.0,0.0,40,0.00,,,0.00,664.00,VWS V14.01,2013-07-21 16:09:00,
2013-07-21 10:14:00,78.3,50.6,29.83,North,-999,0.0,0.0,38,0.00,,,0.00,677.00,VWS V14.01,2013-07-21 16:14:00,
2013-07-21 10:19:00,79.1,52.0,29.83,North,-999,0.0,0.0,39,0.00,,,0.00,691.00,VWS V14.01,2013-07-21 16:19:00,
2013-07-21 10:24:00,80.5,50.4,29.83,North,-999,0.0,0.0,35,0.00,,,0.00,701.00,VWS V14.01,2013-07-21 16:24:00,
2013-07-21 10:29:00,80.7,52.0,29.83,North,-999,0.0,0.0,37,0.00,,,0.00,714.00,VWS V14.01,2013-07-21 16:29:00,
2013-07-21 10:34:00,80.6,52.7,29.83,North,-999,0.0,0.0,38,0.00,,,0.00,726.00,VWS V14.01,2013-07-21 16:34:00,
2013-07-21 10:39:00,80.0,52.8,29.83,North,-999,0.0,2.0,39,0.00,,,0.00,740.00,VWS V14.01,2013-07-21 16:39:00,
2013-07-21 10:44:00,79.8,53.4,29.83,North,-999,3.0,6.0,40,0.00,,,0.00,751.00,VWS V14.01,2013-07-21 16:44:00,
2013-07-21 10:49:00,80.7,52.0,29.83,North,-999,0.0,2.0,37,0.00,,,0.00,761.00,VWS V14.01,2013-07-21 16:49:00,
2013-07-21 10:54:00,82.0,50.1,29.83,North,-999,2.0,2.0,33,0.00,,,0.00,775.00,VWS V14.01,2013-07-21 16:54:00,
2013-07-21 10:59:00,82.5,47.1,29.83,North,-999,5.0,6.0,29,0.00,,,0.00,786.00,VWS V14.01,2013-07-21 16:59:00,
2013-07-21 11:04:00,82.4,47.0,29.83,North,-999,0.0,7.0,29,0.00,,,0.00,796.00,VWS V14.01,2013-07-21 17:04:00,
2013-07-21 11:09:00,83.0,44.6,29.83,North,-999,0.0,0.0,26,0.00,,,0.00,807.00,VWS V14.01,2013-07-21 17:09:00,
2013-07-21 11:14:00,83.9,44.3,29.82,North,-999,7.0,7.0,25,0.00,,,0.00,819.00,VWS V14.01,2013-07-21 17:14:00,
2013-07-21 11:19:00,83.8,44.3,29.83,North,-999,6.0,7.0,25,0.00,,,0.00,831.00,VWS V14.01,2013-07-21 17:19:00,
2013-07-21 11:24:00,83.7,39.7,29.82,North,-999,5.0,11.0,21,0.00,,,0.00,840.00,VWS V14.01,2013-07-21 17:24:00,
2013-07-21 11:29:00,84.0,39.9,29.82,North,-999,12.0,13.0,21,0.00,,,0.00,846.00,VWS V14.01,2013-07-21 17:29:00,
2013-07-21 11:34:00,84.4,40.2,29.82,North,-999,10.0,14.0,21,0.00,,,0.00,854.00,VWS V14.01,2013-07-21 17:34:00,
2013-07-21 11:39:00,84.3,38.9,29.83,North,-999,10.0,11.0,20,0.00,,,0.00,861.00,VWS V14.01,2013-07-21 17:39:00,
2013-07-21 11:44:00,84.4,40.2,29.83,North,-999,7.0,12.0,21,0.00,,,0.00,868.00,VWS V14.01,2013-07-21 17:44:00,
2013-07-21 11:49:00,84.2,40.1,29.82,North,-999,10.0,14.0,21,0.00,,,0.00,875.00,VWS V14.01,2013-07-21 17:49:00,
2013-07-21 11:54:00,84.2,41.3,29.82,North,-999,12.0,14.0,22,0.00,,,0.00,882.00,VWS V14.01,2013-07-21 17:54:00,
2013-07-21 11:59:00,84.2,41.3,29.82,North,-999,11.0,15.0,22,0.00,,,0.00,889.00,VWS V14.01,2013-07-21 17:59:00,
2013-07-21 12:04:00,84.1,38.7,29.82,North,-999,8.0,15.0,20,0.00,,,0.00,895.00,VWS V14.01,2013-07-21 18:04:00,
2013-07-21 12:09:00,84.1,40.0,29.82,North,-999,14.0,14.0,21,0.00,,,0.00,900.00,VWS V14.01,2013-07-21 18:09:00,
2013-07-21 12:14:00,84.2,40.1,29.82,North,-999,6.0,15.0,21,0.00,,,0.00,907.00,VWS V14.01,2013-07-21 18:14:00,
2013-07-21 12:18:00,84.4,40.2,29.82,North,-999,9.0,12.0,21,0.00,,,0.00,914.00,VWS V14.01,2013-07-21 18:18:00,
2013-07-21 12:23:00,84.8,39.3,29.82,North,-999,1.0,12.0,20,0.00,,,0.00,919.00,VWS V14.01,2013-07-21 18:23:00,
2013-07-21 12:28:00,85.2,39.7,29.82,North,-999,2.0,6.0,20,0.00,,,0.00,923.00,VWS V14.01,2013-07-21 18:28:00,
2013-07-21 12:33:00,85.4,41.1,29.82,North,-999,2.0,10.0,21,0.00,,,0.00,928.00,VWS V14.01,2013-07-21 18:33:00,
2013-07-21 12:38:00,85.6,38.7,29.82,North,-999,4.0,6.0,19,0.00,,,0.00,932.00,VWS V14.01,2013-07-21 18:38:00,
2013-07-21 12:43:00,85.8,40.1,29.82,North,-999,4.0,11.0,20,0.00,,,0.00,939.00,VWS V14.01,2013-07-21 18:43:00,
2013-07-21 12:48:00,86.3,40.5,29.81,North,-999,1.0,4.0,20,0.00,,,0.00,942.00,VWS V14.01,2013-07-21 18:48:00,
2013-07-21 12:53:00,86.1,39.1,29.81,North,-999,10.0,10.0,19,0.00,,,0.00,944.00,VWS V14.01,2013-07-21 18:53:00,
2013-07-21 12:58:00,86.5,40.7,29.81,North,-999,11.0,11.0,20,0.00,,,0.00,944.00,VWS V14.01,2013-07-21 18:58:00,
2013-07-21 13:03:00,86.3,39.2,29.81,North,-999,9.0,15.0,19,0.00,,,0.00,946.00,VWS V14.01,2013-07-21 19:03:00,
2013-07-21 13:08:00,86.1,41.6,29.81,North,-999,7.0,15.0,21,0.00,,,0.00,949.00,VWS V14.01,2013-07-21 19:08:00,
2013-07-21 13:13:00,86.2,37.8,29.81,North,-999,6.0,15.0,18,0.00,,,0.00,949.00,VWS V14.01,2013-07-21 19:13:00,
2013-07-21 13:18:00,86.3,40.5,29.81,North,-999,4.0,7.0,20,0.00,,,0.00,951.00,VWS V14.01,2013-07-21 19:18:00,
2013-07-21 13:23:00,86.7,39.6,29.81,North,-999,7.0,11.0,19,0.00,,,0.00,949.00,VWS V14.01,2013-07-21 19:23:00,
2013-07-21 13:28:00,86.6,39.5,29.81,North,-999,3.0,5.0,19,0.00,,,0.00,947.00,VWS V14.01,2013-07-21 19:28:00,
2013-07-21 13:33:00,86.9,41.0,29.81,North,-999,11.0,12.0,20,0.00,,,0.00,947.00,VWS V14.01,2013-07-21 19:33:00,
2013-07-21 13:38:00,86.8,38.3,29.81,North,-999,7.0,10.0,18,0.00,,,0.00,947.00,VWS V14.01,2013-07-21 19:38:00,
2013-07-21 13:43:00,87.0,41.1,29.80,North,-999,6.0,10.0,20,0.00,,,0.00,944.00,VWS V14.01,2013-07-21 19:43:00,
2013-07-21 13:48:00,87.2,40.0,29.80,North,-999,3.0,5.0,19,0.00,,,0.00,942.00,VWS V14.01,2013-07-21 19:48:00,
2013-07-21 13:53:00,87.5,38.8,29.80,North,-999,3.0,11.0,18,0.00,,,0.00,940.00,VWS V14.01,2013-07-21 19:53:00,
2013-07-21 13:58:00,87.7,41.7,29.80,North,-999,9.0,11.0,20,0.00,,,0.00,939.00,VWS V14.01,2013-07-21 19:58:00,
2013-07-21 14:03:00,87.6,40.3,29.80,North,-999,10.0,13.0,19,0.00,,,0.00,933.00,VWS V14.01,2013-07-21 20:03:00,
2013-07-21 14:08:00,87.4,38.7,29.80,North,-999,4.0,13.0,18,0.00,,,0.00,932.00,VWS V14.01,2013-07-21 20:08:00,
2013-07-21 14:13:00,87.4,42.7,29.80,North,-999,6.0,13.0,21,0.00,,,0.00,933.00,VWS V14.01,2013-07-21 20:13:00,
2013-07-21 14:18:00,87.5,42.8,29.80,North,-999,7.0,7.0,21,0.00,,,0.00,928.00,VWS V14.01,2013-07-21 20:18:00,
2013-07-21 14:23:00,87.6,38.9,29.80,North,-999,5.0,10.0,18,0.00,,,0.00,925.00,VWS V14.01,2013-07-21 20:23:00,
2013-07-21 14:28:00,87.9,37.7,29.80,North,-999,0.0,0.0,17,0.00,,,0.00,923.00,VWS V14.01,2013-07-21 20:28:00,
2013-07-21 14:33:00,88.1,36.3,29.80,North,-999,3.0,11.0,16,0.00,,,0.00,930.00,VWS V14.01,2013-07-21 20:33:00,
2013-07-21 14:38:00,88.4,36.5,29.80,North,-999,11.0,13.0,16,0.00,,,0.00,912.00,VWS V14.01,2013-07-21 20:38:00,
2013-07-21 14:43:00,88.3,40.9,29.80,North,-999,6.0,13.0,19,0.00,,,0.00,905.00,VWS V14.01,2013-07-21 20:43:00,
2013-07-21 14:48:00,88.6,38.2,29.80,North,-999,13.0,13.0,17,0.00,,,0.00,898.00,VWS V14.01,2013-07-21 20:48:00,
2013-07-21 14:53:00,88.6,38.2,29.79,North,-999,6.0,13.0,17,0.00,,,0.00,889.00,VWS V14.01,2013-07-21 20:53:00,
2013-07-21 14:58:00,88.8,38.4,29.79,North,-999,7.0,11.0,17,0.00,,,0.00,886.00,VWS V14.01,2013-07-21 20:58:00,
2013-07-21 15:03:00,89.2,38.7,29.79,North,-999,5.0,12.0,17,0.00,,,0.00,879.00,VWS V14.01,2013-07-21 21:03:00,
2013-07-21 15:08:00,89.0,42.8,29.79,North,-999,6.0,6.0,20,0.00,,,0.00,872.00,VWS V14.01,2013-07-21 21:08:00,
2013-07-21 15:13:00,89.1,38.7,29.79,North,-999,6.0,15.0,17,0.00,,,0.00,865.00,VWS V14.01,2013-07-21 21:13:00,
2013-07-21 15:18:00,89.1,38.7,29.79,North,-999,11.0,14.0,17,0.00,,,0.00,853.00,VWS V14.01,2013-07-21 21:18:00,
2013-07-21 15:23:00,89.0,38.6,29.79,North,-999,6.0,18.0,17,0.00,,,0.00,846.00,VWS V14.01,2013-07-21 21:23:00,
2013-07-21 15:28:00,89.2,38.7,29.79,North,-999,6.0,9.0,17,0.00,,,0.00,838.00,VWS V14.01,2013-07-21 21:28:00,
2013-07-21 15:33:00,89.0,35.4,29.79,North,-999,8.0,13.0,15,0.00,,,0.00,831.00,VWS V14.01,2013-07-21 21:33:00,
2013-07-21 15:38:00,88.9,37.0,29.79,North,-999,6.0,6.0,16,0.00,,,0.00,819.00,VWS V14.01,2013-07-21 21:38:00,
2013-07-21 15:43:00,89.2,40.2,29.79,North,-999,15.0,17.0,18,0.00,,,0.00,810.00,VWS V14.01,2013-07-21 21:43:00,
2013-07-21 15:48:00,89.2,38.7,29.79,North,-999,9.0,11.0,17,0.00,,,0.00,803.00,VWS V14.01,2013-07-21 21:48:00,
2013-07-21 15:53:00,89.3,35.6,29.79,North,-999,10.0,21.0,15,0.00,,,0.00,793.00,VWS V14.01,2013-07-21 21:53:00,
2013-07-21 15:58:00,89.0,35.4,29.79,North,-999,6.0,10.0,15,0.00,,,0.00,780.00,VWS V14.01,2013-07-21 21:58:00,
2013-07-21 16:03:00,89.1,35.5,29.79,North,-999,14.0,15.0,15,0.00,,,0.00,768.00,VWS V14.01,2013-07-21 22:03:00,
2013-07-21 16:08:00,89.0,37.0,29.79,North,-999,15.0,15.0,16,0.00,,,0.00,761.00,VWS V14.01,2013-07-21 22:08:00,
2013-07-21 16:13:00,89.0,35.4,29.79,North,-999,14.0,19.0,15,0.00,,,0.00,751.00,VWS V14.01,2013-07-21 22:13:00,
2013-07-21 16:18:00,88.9,33.6,29.79,North,-999,10.0,15.0,14,0.00,,,0.00,740.00,VWS V14.01,2013-07-21 22:18:00,
2013-07-21 16:23:00,89.0,33.7,29.79,North,-999,2.0,15.0,14,0.00,,,0.00,729.00,VWS V14.01,2013-07-21 22:23:00,
2013-07-21 16:28:00,89.3,33.9,29.79,North,-999,5.0,11.0,14,0.00,,,0.00,717.00,VWS V14.01,2013-07-21 22:28:00,
2013-07-21 16:33:00,89.1,33.8,29.79,North,-999,12.0,12.0,14,0.00,,,0.00,703.00,VWS V14.01,2013-07-21 22:33:00,
2013-07-21 16:38:00,89.3,32.1,29.79,North,-999,4.0,13.0,13,0.00,,,0.00,694.00,VWS V14.01,2013-07-21 22:38:00,
2013-07-21 16:43:00,89.2,35.6,29.79,North,-999,4.0,14.0,15,0.00,,,0.00,679.00,VWS V14.01,2013-07-21 22:43:00,
2013-07-21 16:48:00,89.2,38.7,29.79,North,-999,12.0,12.0,17,0.00,,,0.00,666.00,VWS V14.01,2013-07-21 22:48:00,
2013-07-21 16:53:00,89.2,35.6,29.79,North,-999,12.0,15.0,15,0.00,,,0.00,652.00,VWS V14.01,2013-07-21 22:53:00,
2013-07-21 16:58:00,89.2,35.6,29.78,North,-999,6.0,11.0,15,0.00,,,0.00,638.00,VWS V14.01,2013-07-21 22:58:00,
2013-07-21 17:03:00,89.0,33.7,29.78,North,-999,12.0,15.0,14,0.00,,,0.00,622.00,VWS V14.01,2013-07-21 23:03:00,
2013-07-21 17:08:00,89.0,37.0,29.79,North,-999,10.0,11.0,16,0.00,,,0.00,610.00,VWS V14.01,2013-07-21 23:08:00,
2013-07-21 17:13:00,88.8,36.9,29.79,North,-999,9.0,18.0,16,0.00,,,0.00,598.00,VWS V14.01,2013-07-21 23:13:00,
2013-07-21 17:18:00,88.7,36.8,29.79,North,-999,13.0,17.0,16,0.00,,,0.00,582.00,VWS V14.01,2013-07-21 23:18:00,
2013-07-21 17:23:00,88.7,36.8,29.78,North,-999,10.0,17.0,16,0.00,,,0.00,570.00,VWS V14.01,2013-07-21 23:23:00,
2013-07-21 17:28:00,89.0,37.0,29.78,North,-999,11.0,11.0,16,0.00,,,0.00,555.00,VWS V14.01,2013-07-21 23:28:00,
2013-07-21 17:33:00,89.2,37.2,29.78,North,-999,6.0,13.0,16,0.00,,,0.00,541.00,VWS V14.01,2013-07-21 23:33:00,
2013-07-21 17:38:00,89.2,38.7,29.78,North,-999,5.0,5.0,17,0.00,,,0.00,527.00,VWS V14.01,2013-07-21 23:38:00,
2013-07-21 17:43:00,89.3,37.3,29.78,North,-999,9.0,10.0,16,0.00,,,0.00,510.00,VWS V14.01,2013-07-21 23:43:00,
2013-07-21 17:48:00,89.4,35.7,29.78,North,-999,10.0,10.0,15,0.00,,,0.00,494.00,VWS V14.01,2013-07-21 23:48:00,
2013-07-21 17:53:00,89.3,38.8,29.78,North,-999,9.0,12.0,17,0.00,,,0.00,478.00,VWS V14.01,2013-07-21 23:53:00,
2013-07-21 17:58:00,88.8,41.3,29.78,North,-999,8.0,10.0,19,0.00,,,0.00,461.00,VWS V14.01,2013-07-21 23:58:00,
2013-07-21 18:03:00,88.6,39.7,29.78,North,-999,6.0,14.0,18,0.00,,,0.00,445.00,VWS V14.01,2013-07-22 00:03:00,
2013-07-21 18:08:00,88.6,42.4,29.78,North,-999,6.0,7.0,20,0.00,,,0.00,432.00,VWS V14.01,2013-07-22 00:08:00,
2013-07-21 18:13:00,88.5,39.6,29.78,North,-999,9.0,11.0,18,0.00,,,0.00,417.00,VWS V14.01,2013-07-22 00:13:00,
2013-07-21 18:18:00,88.2,36.4,29.78,North,-999,12.0,14.0,16,0.00,,,0.00,399.00,VWS V14.01,2013-07-22 00:18:00,
2013-07-21 18:23:00,88.1,39.3,29.78,North,-999,12.0,14.0,18,0.00,,,0.00,383.00,VWS V14.01,2013-07-22 00:23:00,
2013-07-21 18:28:00,87.8,40.5,29.78,North,-999,9.0,11.0,19,0.00,,,0.00,366.00,VWS V14.01,2013-07-22 00:28:00,
2013-07-21 18:33:00,87.6,41.6,29.78,North,-999,8.0,11.0,20,0.00,,,0.00,352.00,VWS V14.01,2013-07-22 00:33:00,
2013-07-21 18:38:00,87.5,42.8,29.78,North,-999,5.0,7.0,21,0.00,,,0.00,336.00,VWS V14.01,2013-07-22 00:38:00,
2013-07-21 18:43:00,87.2,42.5,29.78,North,-999,7.0,11.0,21,0.00,,,0.00,322.00,VWS V14.01,2013-07-22 00:43:00,
2013-07-21 18:47:00,87.2,43.8,29.78,North,-999,5.0,5.0,22,0.00,,,0.00,306.00,VWS V14.01,2013-07-22 00:47:00,
2013-07-21 18:52:00,86.9,43.5,29.78,North,-999,6.0,9.0,22,0.00,,,0.00,290.00,VWS V14.01,2013-07-22 00:52:00,
2013-07-21 18:57:00,86.6,43.3,29.78,North,-999,11.0,12.0,22,0.00,,,0.00,272.00,VWS V14.01,2013-07-22 00:57:00,
2013-07-21 19:02:00,86.5,42.0,29.78,North,-999,6.0,12.0,21,0.00,,,0.00,253.00,VWS V14.01,2013-07-22 01:02:00,
2013-07-21 19:07:00,86.3,40.5,29.78,North,-999,10.0,10.0,20,0.00,,,0.00,236.00,VWS V14.01,2013-07-22 01:07:00,
2013-07-21 19:12:00,86.3,40.5,29.78,North,-999,4.0,12.0,20,0.00,,,0.00,218.00,VWS V14.01,2013-07-22 01:12:00,
2013-07-21 19:17:00,85.7,44.8,29.79,North,-999,10.0,10.0,24,0.00,,,0.00,199.00,VWS V14.01,2013-07-22 01:17:00,
2013-07-21 19:22:00,85.0,41.9,29.79,North,-999,9.0,13.0,22,0.00,,,0.00,179.00,VWS V14.01,2013-07-22 01:22:00,
2013-07-21 19:27:00,84.9,41.9,29.79,North,-999,10.0,12.0,22,0.00,,,0.00,160.00,VWS V14.01,2013-07-22 01:27:00,
2013-07-21 19:32:00,84.3,42.5,29.79,North,-999,8.0,12.0,23,0.00,,,0.00,142.00,VWS V14.01,2013-07-22 01:32:00,
2013-07-21 19:37:00,84.1,42.3,29.79,North,-999,8.0,11.0,23,0.00,,,0.00,125.00,VWS V14.01,2013-07-22 01:37:00,
2013-07-21 19:42:00,84.1,41.2,29.79,North,-999,5.0,11.0,22,0.00,,,0.00,111.00,VWS V14.01,2013-07-22 01:42:00,
2013-07-21 19:47:00,84.2,42.4,29.79,North,-999,9.0,10.0,23,0.00,,,0.00,95.00,VWS V14.01,2013-07-22 01:47:00,
2013-07-21 19:52:00,83.4,41.8,29.79,North,-999,9.0,10.0,23,0.00,,,0.00,81.00,VWS V14.01,2013-07-22 01:52:00,
2013-07-21 19:57:00,83.0,40.3,29.79,North,-999,6.0,11.0,22,0.00,,,0.00,67.00,VWS V14.01,2013-07-22 01:57:00,
2013-07-21 20:02:00,82.3,41.9,29.80,North,-999,9.0,12.0,24,0.00,,,0.00,54.00,VWS V14.01,2013-07-22 02:02:00,
2013-07-21 20:07:00,81.9,40.5,29.80,North,-999,6.0,8.0,23,0.00,,,0.00,42.00,VWS V14.01,2013-07-22 02:07:00,
2013-07-21 20:12:00,81.5,43.3,29.80,North,-999,5.0,8.0,26,0.00,,,0.00,33.00,VWS V14.01,2013-07-22 02:12:00,
2013-07-21 20:17:00,80.9,42.8,29.80,North,-999,7.0,7.0,26,0.00,,,0.00,26.00,VWS V14.01,2013-07-22 02:17:00,
2013-07-21 20:22:00,80.4,42.4,29.80,North,-999,6.0,9.0,26,0.00,,,0.00,19.00,VWS V14.01,2013-07-22 02:22:00,
2013-07-21 20:27:00,79.8,42.9,29.80,North,-999,0.0,2.0,27,0.00,,,0.00,18.00,VWS V14.01,2013-07-22 02:27:00,
2013-07-21 20:32:00,79.8,42.9,29.80,North,-999,3.0,6.0,27,0.00,,,0.00,14.00,VWS V14.01,2013-07-22 02:32:00,
2013-07-21 20:37:00,79.6,42.7,29.80,North,-999,4.0,4.0,27,0.00,,,0.00,12.00,VWS V14.01,2013-07-22 02:37:00,
2013-07-21 20:42:00,79.6,41.7,29.81,North,-999,2.0,6.0,26,0.00,,,0.00,9.00,VWS V14.01,2013-07-22 02:42:00,
2013-07-21 20:47:00,79.7,41.8,29.81,North,-999,4.0,5.0,26,0.00,,,0.00,7.00,VWS V14.01,2013-07-22 02:47:00,
2013-07-21 20:52:00,79.8,40.9,29.81,North,-999,2.0,5.0,25,0.00,,,0.00,5.00,VWS V14.01,2013-07-22 02:52:00,
2013-07-21 20:57:00,79.9,39.9,29.81,North,-999,4.0,4.0,24,0.00,,,0.00,0.00,VWS V14.01,2013-07-22 02:57:00,
2013-07-21 21:02:00,80.2,39.1,29.82,North,-999,2.0,6.0,23,0.00,,,0.00,0.00,VWS V14.01,2013-07-22 03:02:00,
2013-07-21 21:07:00,80.0,40.0,29.82,North,-999,0.0,0.0,24,0.00,,,0.00,0.00,VWS V14.01,2013-07-22 03:07:00,
2013-07-21 21:12:00,79.7,39.8,29.82,North,-999,0.0,3.0,24,0.00,,,0.00,0.00,VWS V14.01,2013-07-22 03:12:00,
2013-07-21 21:17:00,79.3,40.5,29.82,North,-999,0.0,0.0,25,0.00,,,0.00,0.00,VWS V14.01,2013-07-22 03:17:00,
2013-07-21 21:22:00,78.8,41.0,29.82,North,-999,0.0,0.0,26,0.00,,,0.00,0.00,VWS V14.01,2013-07-22 03:22:00,
2013-07-21 21:27:00,78.0,41.3,29.83,North,-999,0.0,0.0,27,0.00,,,0.00,0.00,VWS V14.01,2013-07-22 03:27:00,
2013-07-21 21:32:00,77.5,40.9,29.83,North,-999,0.0,0.0,27,0.00,,,0.00,0.00,VWS V14.01,2013-07-22 03:32:00,
2013-07-21 21:37:00,77.1,40.6,29.83,North,-999,0.0,0.0,27,0.00,,,0.00,0.00,VWS V14.01,2013-07-22 03:37:00,
2013-07-21 21:42:00,76.7,40.2,29.84,North,-999,0.0,2.0,27,0.00,,,0.00,0.00,VWS V14.01,2013-07-22 03:42:00,
2013-07-21 21:47:00,76.5,40.1,29.84,North,-999,0.0,0.0,27,0.00,,,0.00,0.00,VWS V14.01,2013-07-22 03:47:00,
2013-07-21 21:52:00,76.3,39.9,29.84,North,-999,0.0,3.0,27,0.00,,,0.00,0.00,VWS V14.01,2013-07-22 03:52:00,
2013-07-21 21:57:00,76.0,40.6,29.84,North,-999,0.0,5.0,28,0.00,,,0.00,0.00,VWS V14.01,2013-07-22 03:57:00,
2013-07-21 22:01:00,75.6,40.2,29.84,North,-999,0.0,0.0,28,0.00,,,0.00,0.00,VWS V14.01,2013-07-22 04:01:00,
2013-07-21 22:06:00,75.0,41.5,29.84,North,-999,0.0,0.0,30,0.00,,,0.00,0.00,VWS V14.01,2013-07-22 04:06:00,
2013-07-21 22:11:00,74.3,40.9,29.84,North,-999,0.0,0.0,30,0.00,,,0.00,0.00,VWS V14.01,2013-07-22 04:11:00,
2013-07-21 22:16:00,73.9,41.4,29.85,North,-999,0.0,3.0,31,0.00,,,0.00,0.00,VWS V14.01,2013-07-22 04:16:00,
2013-07-21 22:21:00,73.3,40.9,29.85,North,-999,0.0,0.0,31,0.00,,,0.00,0.00,VWS V14.01,2013-07-22 04:21:00,
2013-07-21 22:26:00,73.0,41.4,29.84,North,-999,0.0,0.0,32,0.00,,,0.00,0.00,VWS V14.01,2013-07-22 04:26:00,
2013-07-21 22:31:00,72.8,41.3,29.85,North,-999,0.0,0.0,32,0.00,,,0.00,0.00,VWS V14.01,2013-07-22 04:31:00,
2013-07-21 22:36:00,72.6,41.9,29.85,North,-999,0.0,0.0,33,0.00,,,0.00,0.00,VWS V14.01,2013-07-22 04:36:00,
2013-07-21 22:41:00,71.9,42.8,29.85,North,-999,0.0,0.0,35,0.00,,,0.00,0.00,VWS V14.01,2013-07-22 04:41:00,
2013-07-21 22:46:00,70.9,42.6,29.85,North,-999,0.0,0.0,36,0.00,,,0.00,0.00,VWS V14.01,2013-07-22 04:46:00,
2013-07-21 22:51:00,69.8,43.8,29.85,North,-999,0.0,0.0,39,0.00,,,0.00,0.00,VWS V14.01,2013-07-22 04:51:00,
2013-07-21 22:56:00,68.3,44.3,29.85,North,-999,5.0,5.0,42,0.00,,,0.00,0.00,VWS V14.01,2013-07-22 04:56:00,
2013-07-21 23:01:00,65.7,47.1,29.86,North,-999,5.0,6.0,51,0.00,,,0.00,0.00,VWS V14.01,2013-07-22 05:01:00,
2013-07-21 23:06:00,63.4,47.5,29.86,North,-999,5.0,6.0,56,0.00,,,0.00,0.00,VWS V14.01,2013-07-22 05:06:00,
2013-07-21 23:11:00,63.2,46.8,29.86,North,-999,0.0,3.0,55,0.00,,,0.00,0.00,VWS V14.01,2013-07-22 05:11:00,
2013-07-21 23:16:00,63.7,46.8,29.86,North,-999,0.0,3.0,54,0.00,,,0.00,0.00,VWS V14.01,2013-07-22 05:16:00,
2013-07-21 23:21:00,63.4,47.9,29.86,North,-999,4.0,6.0,57,0.00,,,0.00,0.00,VWS V14.01,2013-07-22 05:21:00,
2013-07-21 23:26:00,62.5,48.0,29.86,North,-999,5.0,6.0,59,0.00,,,0.00,0.00,VWS V14.01,2013-07-22 05:26:00,
2013-07-21 23:31:00,62.0,48.4,29.86,North,-999,5.0,6.0,61,0.00,,,0.00,0.00,VWS V14.01,2013-07-22 05:31:00,
2013-07-21 23:36:00,61.7,48.6,29.86,North,-999,6.0,7.0,62,0.00,,,0.00,0.00,VWS V14.01,2013-07-22 05:36:00,
2013-07-21 23:41:00,62.8,46.9,29.86,North,-999,4.0,6.0,56,0.00,,,0.00,0.00,VWS V14.01,2013-07-22 05:41:00,
2013-07-21 23:46:00,64.6,45.6,29.86,North,-999,4.0,6.0,50,0.00,,,0.00,0.00,VWS V14.01,2013-07-22 05:46:00,
2013-07-21 23:51:00,66.5,46.8,29.86,North,-999,3.0,4.0,49,0.00,,,0.00,0.00,VWS V14.01,2013-07-22 05:51:00,
2013-07-21 23:56:00,66.6,47.4,29.86,North,-999,5.0,5.0,50,0.00,,,0.00,0.00,VWS V14.01,2013-07-22 05:56:00,